User: anonymous   Login
Location: Caltech
(34.1382°N, 118.1253°W)
Time: 08:26:13
(UTC-07:00)
Language:

Courier 1B - Orbit

View from above orbital plane
View from above orbital plane
View from above satellite
View from above satellite

Ground track
Ground track

The orbit data is extracted from the following two-line orbital elements,

1 00058U 60013A   15145.14978522  .00000098  00000-0  15065-4 0  9995
2 00058 028.3271 121.5272 0164976 230.6723 127.9093 13.46293405689612
Epoch (UTC): 25 May 2015 03:35:41
Eccentricity: 0.0164976
inclination: 28.3271°
perigee height: 963 km
apogee height: 1209 km
right ascension of ascending node: 121.5272°
argument of perigee: 230.6723°
revolutions per day: 13.46293405
mean anomaly at epoch: 127.9093°
orbit number at epoch: 68961

The dashed part of the orbit path shows where the satellite is in the earth's shadow,  

DLR